Regional Weather Roundup
Issued by NWS

Home | Current Version | Previous Version | Graphics & Text | Print | Product List | Glossary On
Versions: 1 2 3 4 5 6 7 8 9 10 11 12 13 14 15 16 17 18 19 20 21 22 23 24 25 26 27 28 29 30 31 32 33 34 35 36 37 38 39 40 41 42 43 44 45 46 47 48 49 50
000
ASUS43 KOAX 271902
RWRNE

WEATHER ROUNDUP FOR NEBRASKA
NATIONAL WEATHER SERVICE OMAHA NE
100 PM CST MON FEB 27 2017

NOTES: SATELLITE DATA IS BEING USED TO AUGMENT CLOUD COVER ABOVE
       12000 FEET.
       "FAIR" INDICATES FEW OR NO CLOUDS BELOW 12,000 FEET WITH NO
       SIGNIFICANT WEATHER AND/OR OBSTRUCTIONS TO VISIBILITY.

  * THESE STATIONS DO NOT REPORT WEATHER SUCH AS RAIN...SNOW OR FOG.

NEZ001>004-019>022-054>056-272000-
NEBRASKA PANHANDLE

CITY           SKY/WX    TMP DP  RH WIND       PRES   REMARKS
SCOTTSBLUFF    CLOUDY    33  18  53 E8        29.63F WCI  26
ALLIANCE       CLOUDY    31  21  66 CALM      29.62F
CHADRON        CLOUDY    34  16  47 CALM      29.63F
KIMBALL        SUNNY     42  23  45 S16       29.61F
SIDNEY         SUNNY     47  18  31 S21       29.63F
$$

NEZ057>060-069>072-079>082-272000-
SOUTHWEST NEBRASKA

CITY           SKY/WX    TMP DP  RH WIND       PRES   REMARKS
NORTH PLATTE   SUNNY     46  27  47 S14       29.72F
IMPERIAL       SUNNY     43  23  45 S12       29.69F
LEXINGTON      SUNNY     48  30  49 S20G26    29.74F
MCCOOK         SUNNY     46  28  49 VRB7      29.73F
OGALLALA       SUNNY     43  29  58 S8        29.68F
$$

NEZ005>010-023>029-035>040-094-272000-
NORTH CENTRAL NEBRASKA

CITY           SKY/WX    TMP DP  RH WIND       PRES   REMARKS
VALENTINE      SUNNY     38  26  62 S17       29.69F WCI  28
AINSWORTH      CLOUDY    40  30  66 S18       29.71F WCI  31
BROKEN BOW     SUNNY     44  29  55 S14G24    29.74F
O`NEILL        CLOUDY    41  28  58 S16       29.77F
ORD            SUNNY     45  27  49 S14G23    29.76F
THEDFORD       SUNNY     43  30  61 S17       29.70F
$$

NEZ041-046>049-061>064-073>077-083>087-272000-
SOUTH CENTRAL NEBRASKA

CITY           SKY/WX    TMP DP  RH WIND       PRES   REMARKS
GRAND ISLAND   PTSUNNY   49  28  44 S16G24    29.81F
AURORA         CLOUDY    48  28  44 SE17      29.82F
HASTINGS       CLOUDY    50  30  46 S16G26    29.80F
HEBRON         CLOUDY    53  32  44 SE21G29   29.82F
HOLDREGE       SUNNY     48  30  49 S20G26    29.76F
KEARNEY *      CLOUDY    48  28  46 SE17G23   29.78F
YORK           MOSUNNY   50  28  43 S17G24    29.83F
$$

NEZ011>018-030>034-042>045-272000-
NORTHEAST NEBRASKA

CITY           SKY/WX    TMP DP  RH WIND       PRES   REMARKS
NORFOLK        SUNNY     44  26  49 S23G30    29.83F
ALBION         CLOUDY    47  27  45 S13G20    29.82F
BLAIR          CLOUDY    47  28  47 SE10      29.90F
FREMONT        MOSUNNY   46  32  57 SE10      29.89F
TEKAMAH        CLOUDY    45  33  63 SE13      29.90F
WAYNE          SUNNY     42  30  63 S14       29.85F
$$

NEZ050>053-065>068-078-088>093-272000-
SOUTHEAST NEBRASKA

CITY           SKY/WX    TMP DP  RH WIND       PRES   REMARKS
LINCOLN        MOSUNNY   54  25  32 SE18G30   29.88F
OMAHA EPPLEY   CLOUDY    51  25  36 S16       29.90F
BEATRICE       MOSUNNY   55  26  33 SE15G25   29.88F
FALLS CITY     MOSUNNY   57  24  28 SE17G28   29.91F
NEBRASKA CITY  MOSUNNY   53  19  25 S21G29    29.91F
PLATTSMOUTH    CLOUDY    51  26  38 SE16G22   29.90F
$$

NEZ044-045-051>053-067-272000-
OMAHA AREA

CITY           SKY/WX    TMP DP  RH WIND       PRES   REMARKS
OMAHA EPPLEY   CLOUDY    51  25  36 S16       29.90F
BLAIR          CLOUDY    47  28  47 SE10      29.90F
FREMONT        MOSUNNY   46  32  57 SE10      29.89F
MILLARD        CLOUDY    51  31  46 SE17      29.90F
OFFUTT AFB     CLOUDY    51  25  35 S14       29.90F
PLATTSMOUTH    CLOUDY    51  26  38 SE16G22   29.90F
WAHOO          MOCLDY    47  30  50 SE14      29.89F
$$




USA.gov is the U.S. government's official web portal to all federal, state and local government web resources and services.